Regional Weather Roundup
Issued by NWS

Home | Current Version | Previous Version | Graphics & Text | Print | Product List | Glossary On
Versions: 1 2 3 4 5 6 7 8 9 10 11 12 13 14 15 16 17 18 19 20 21 22 23 24 25 26 27 28 29 30 31 32 33 34 35 36 37 38 39 40 41 42 43 44 45 46 47 48 49 50
000
ASUS43 KLMK 311510
RWRKY
KENTUCKY REGIONAL WEATHER ROUNDUP
NATIONAL WEATHER SERVICE LOUISVILLE KY
1100 AM EDT FRI OCT 31 2014

NOTE "FAIR" INDICATES FEW OR NO CLOUDS BELOW 12,000 FEET
WITH NO SIGNIFICANT WEATHER AND/OR OBSTRUCTIONS TO VISIBILITY.

KYZ001>023-026-027-061>063-070>075-311600-
WESTERN AND SOUTH CENTRAL KENTUCKY

CITY           SKY/WX    TMP DP  RH WIND       PRES   REMARKS
PADUCAH        CLOUDY    51  44  77 N16       30.12R
HENDERSON      CLOUDY    48  39  71 NW17G23   30.08S
OWENSBORO      PTSUNNY   50  43  77 NW15G23   30.06S
HOPKINSVILLE   CLOUDY    49  49 100 N6        30.06R FOG
BOWLING GREEN  CLOUDY    48  44  86 NW3       30.05R FOG
GLASGOW        LGT RAIN  46  46  97 NW3       30.02S
$$

KYZ024-025-028>034-038-045-046-053-311600-
NORTH CENTRAL KENTUCKY

CITY           SKY/WX    TMP DP  RH WIND       PRES   REMARKS
LOUISVILLE/SDF CLOUDY    51  44  77 W9        30.00F
LOUISVILLE/LOU PTSUNNY   51  43  74 W7        30.01F
FORT KNOX      PTSUNNY   48  44  85 W10       30.00F
$$

KYZ035>037-039>044-047>052-055>060-089>105-311600-
NORTHEAST KENTUCKY

CITY           SKY/WX    TMP DP  RH WIND       PRES   REMARKS
LEXINGTON      CLOUDY    47  42  83 SW5       29.98F HAZE
COVINGTON      CLOUDY    48  40  73 W7        29.95F
FRANKFORT      CLOUDY    45  42  89 CALM      29.98F FOG
$$

KYZ054-064>069-076>088-106>120-311600-
SOUTHEAST KENTUCKY

CITY           SKY/WX    TMP DP  RH WIND       PRES   REMARKS
JACKSON        LGT RAIN  41  39  93 CALM      29.97F FOG
LONDON         LGT RAIN  44  40  85 W3        29.99S FOG
SOMERSET       LGT RAIN  43  43 100 CALM      30.01F
MIDDLESBORO    CLOUDY    42  39  91 CALM      29.99F
MONTICELLO     LGT RAIN  46  44  93 CALM      30.01F FOG
$$




USA.gov is the U.S. government's official web portal to all federal, state and local government web resources and services.